Location: ????? ??????
(37.8317°N, 23.8750°E)
Time: 17:47:25
(UTC+00:00)

Cosmos 1602 Rocket - Pass Details

Date: 20 January 2021
Orbit: 604 x 632 km, 82.5° (Epoch: 01 March)

Event Time Altitude Azimuth Distance (km) Brightness Sun altitude
Rises 16:46:07 0° 165° (SSE) 2,844 7.0 -14.1°
Reaches altitude 10° 16:48:27 10° 156° (SSE) 1,947 6.0 -14.5°
Maximum altitude 16:52:21 34° 91° (E) 1,004 4.1 -15.3°
Enters shadow 16:54:23 22° 43° (NE) 1,334 4.8 -15.7°
